Lid_Strength_Index
1 1 1 1 1 2 3 3 3 3 3 5 6 6 7 7 8 9 10 10 11 11
1 1 1 1 2 2 3 5 6 6 6 6 7 8 8 10 10 10 10 11 11 12
2 1 1 2 2 2 3 6 7 8 8 8 9 10 10 10 11 11 11 11 12 12
3 3 3 2 3 3 7 8 9 9 9 10 11 11 11 12 11 12 12 12 12 12
3 4 4 4 5 7 9 9 10 10 10 11 12 12 12 12 12 13 13 12 12 13
5 4 4 6 7 8 10 10 9 10 11 11 12 12 12 13 13 13 13 12 13 13
7 6 6 7 8 9 10 11 11 12 12 12 13 12 13 14 13 13 14 12 12 13
8 8 9 10 10 10 11 11 11 12 12 12 13 13 14 13 13 13 13 13 13 13
9 11 13 13 14 14 14 12 12 12 13 13 12 11 12 12 14 14 14 16 15 13
12 13 13 14 14 14 15 15 14 14 13 13 14 11 10 13 14 14 14 15 13 14
14 14 15 15 15 15 15 15 15 14 13 14 14 11 12 13 14 15 15 14 13 14
14 15 15 15 15 15 15 15 15 14 14 13 15 11 11 13 14 15 14 14 14 14
14 15 16 16 15 15 15 15 15 15 14 15 14 12 12 13 15 15 15 15 14 14
16 16 16 16 17 16 15 15 15 15 14 14 14 13 12 12 14 15 15 15 15 14